FW8095 Weather Reports


time (UTC)temp
C
wind
direction
speed
KPH
gust
KPH
rain 1hr
cm
rain 24hr
cm
rain mn
cm
humidity
%
barometer
mb
20260504214531 24 314 0.0 4.8 0.00 0.00 0.00 45 1014.2
20260504213036 25 307 3.2 9.7 0.00 0.00 0.00 43 1014.2
20260504211551 25 266 0.0 8.0 0.00 0.00 0.00 42 1014.4
20260504210038 25 290 1.6 8.0 0.00 0.00 0.00 42 1014.5
20260504204533 25 0 0.0 9.7 0.00 0.00 0.00 42 1014.7
20260504203029 25 0 0.0 4.8 0.00 0.00 0.00 42 1014.6
20260504201538 25 90 1.6 6.4 0.00 0.00 0.00 43 1014.8
20260504200036 26 0 0.0 4.8 0.00 0.00 0.00 40 1014.9
20260504194548 27 298 1.6 6.4 0.00 0.00 0.00 38 1015.2
20260504193038 27 133 0.0 3.2 0.00 0.00 0.00 38 1015.4
20260504191542 26 0 0.0 6.4 0.00 0.00 0.00 42 1015.6
20260504190044 27 180 1.6 8.0 0.00 0.00 0.00 42 1015.7
20260504184545 26 311 1.6 6.4 0.00 0.00 0.00 41 1016.0
20260504183040 26 0 0.0 6.4 0.00 0.00 0.00 44 1016.2
20260504181538 27 280 1.6 6.4 0.00 0.00 0.00 43 1016.5
20260504180039 26 221 3.2 8.0 0.00 0.00 0.00 41 1016.5
20260504174540 26 302 1.6 4.8 0.00 0.00 0.00 43 1016.8
20260504173031 27 231 0.0 3.2 0.00 0.00 0.00 44 1016.8
20260504171540 26 213 1.6 8.0 0.00 0.00 0.00 45 1017.0
20260504081539 8 0 0.0 0.0 0.00 0.00 0.00 90 1017.7
20260504044537 11 0 0.0 0.0 0.00 0.00 0.00 82 1018.9
20260504043034 11 0 0.0 0.0 0.00 0.00 0.00 81 1019.1
20260504041535 11 0 0.0 0.0 0.00 0.00 0.00 79 1019.1
20260504040038 12 0 0.0 0.0 0.00 0.00 0.00 77 1019.2
20260504034537 12 0 0.0 0.0 0.00 0.00 0.00 76 1019.3
20260504033036 12 0 0.0 0.0 0.00 0.00 0.00 74 1019.5
20260504031548 13 0 0.0 0.0 0.00 0.00 0.00 73 1019.4
20260504030043 13 0 0.0 0.0 0.00 0.00 0.00 72 1019.4
20260504024542 13 0 0.0 0.0 0.00 0.00 0.00 69 1019.2
20260504023038 13 0 0.0 0.0 0.00 0.00 0.00 70 1019.2
20260504021534 14 0 0.0 0.0 0.00 0.00 0.00 65 1019.0
20260504020040 15 0 0.0 0.0 0.00 0.00 0.00 62 1018.9
20260504014543 15 0 0.0 0.0 0.00 0.00 0.00 61 1019.1
20260504013043 15 0 0.0 0.0 0.00 0.00 0.00 60 1018.7
20260504011540 16 0 0.0 0.0 0.00 0.00 0.00 58 1018.7
20260504010036 16 0 0.0 0.0 0.00 0.00 0.00 57 1018.6
20260504004534 16 0 0.0 0.0 0.00 0.00 0.00 57 1018.5
20260504003040 16 0 0.0 0.0 0.00 0.00 0.00 59 1018.4
20260504001548 16 0 0.0 0.0 0.00 0.00 0.00 60 1018.2
20260504000037 17 0 0.0 0.0 0.00 0.00 0.00 57 1018.3
20260503234558 17 0 0.0 0.0 0.00 0.00 0.00 57 1018.1
20260503233046 18 0 0.0 0.0 0.00 0.00 0.00 55 1018.3
20260503231540 18 0 0.0 1.6 0.00 0.00 0.00 49 1018.2
20260503230038 19 0 0.0 1.6 0.00 0.00 0.00 50 1018.3
20260503224536 19 203 0.0 3.2 0.00 0.00 0.00 45 1018.3
20260503223042 19 151 0.0 3.2 0.00 0.00 0.00 44 1018.2
20260503221548 20 0 0.0 1.6 0.00 0.00 0.00 46 1018.4
20260503220040 20 127 0.0 3.2 0.00 0.00 0.00 43 1018.5